Theta_e
278 278 279 279 279 279 279 279 278 278 277 277 276 276 275 275 275 274 274 274 273 273 272 272 271 271 271 272 271 271 271 272 272 272 272 271 271 270 270 269 268 267 267 269 271 270 270 271 271 270 271 271 271 271 271 272 271 271 270 270 271 271 275
278 278 278 278 279 279 279 279 278 278 277 276 276 275 275 275 275 274 274 273 272 272 272 272 271 271 271 271 271 271 271 271 271 271 271 270 270 270 269 270 268 266 266 265 269 269 271 271 272 270 272 270 270 270 270 270 270 270 270 270 271 271 272
278 278 278 278 279 279 279 278 278 278 277 276 276 275 275 275 275 274 273 272 272 272 272 271 271 271 271 272 271 271 271 271 271 271 270 270 270 269 269 269 269 267 266 266 268 270 270 270 270 270 270 271 270 270 270 269 269 270 270 271 272 272 272
278 278 278 278 278 279 278 278 278 278 277 277 276 276 275 275 275 274 273 273 272 272 272 271 271 271 271 271 271 271 271 271 271 270 270 269 269 269 269 269 269 269 268 268 267 269 268 269 269 270 271 271 271 270 269 269 269 270 270 271 272 272 271
279 278 278 278 278 278 278 278 278 277 277 277 277 276 276 275 275 274 273 273 273 273 272 271 271 271 271 271 270 270 271 271 270 270 270 269 269 269 269 269 270 270 270 269 267 267 269 270 270 270 270 271 269 269 269 269 269 269 270 271 272 272 272
279 279 278 278 278 278 278 278 278 277 277 277 277 276 276 276 274 274 273 273 273 273 272 271 271 271 271 270 270 270 270 271 270 270 269 269 269 269 269 269 270 270 269 268 268 268 268 270 269 269 270 270 269 268 267 268 269 270 271 271 270 270 270
280 279 279 278 279 278 278 278 278 278 277 277 277 276 276 275 274 274 273 273 273 272 272 272 271 271 271 270 270 270 270 269 269 269 269 269 269 268 268 268 268 268 268 268 268 269 269 269 270 270 268 269 269 269 269 267 267 268 270 270 269 268 269
280 280 279 279 278 279 278 278 278 278 277 277 276 276 275 275 274 273 273 273 273 272 272 272 272 271 271 271 271 271 270 269 268 268 268 268 268 267 267 266 267 267 268 268 268 268 268 269 268 269 270 270 270 268 268 269 268 266 267 268 268 268 267
281 280 279 278 278 278 278 278 277 277 277 276 276 275 275 274 274 273 273 273 272 272 272 272 272 271 271 271 273 274 273 271 271 268 267 267 267 266 266 266 267 268 268 268 268 268 269 268 268 268 268 268 268 267 266 268 268 267 267 266 266 267 269
280 280 279 278 278 278 278 278 277 278 280 279 276 275 275 274 274 274 273 272 272 272 272 271 271 272 273 273 274 274 274 274 274 273 270 268 267 267 267 267 268 268 269 268 267 268 268 267 267 268 268 268 268 268 268 267 267 265 265 265 265 267 268
280 279 279 278 277 277 277 277 278 280 281 281 280 276 275 274 274 274 273 273 272 271 271 271 271 271 273 274 274 274 275 275 275 275 275 274 273 272 270 269 269 269 269 269 268 269 268 268 268 268 269 268 267 268 267 266 265 265 265 264 263 262 266
279 279 279 278 278 277 277 277 279 281 281 282 282 279 275 274 274 273 273 273 272 272 272 271 271 271 271 272 272 272 272 274 276 276 276 276 276 276 276 276 273 271 270 270 269 269 269 268 267 267 267 267 267 266 266 266 266 265 265 264 264 264 263
279 279 279 278 277 277 277 277 279 281 282 282 282 282 278 274 274 273 273 273 273 272 272 271 270 270 270 270 274 273 270 269 271 275 276 276 276 276 276 276 276 276 273 271 269 268 268 268 267 266 266 267 267 268 266 266 266 266 266 266 265 265 265
279 279 278 278 278 277 277 277 279 281 282 282 282 282 280 274 274 274 273 273 273 272 272 271 271 270 269 269 270 271 269 268 268 267 267 267 267 267 270 273 274 273 274 273 269 266 265 266 267 266 267 269 270 268 266 266 265 266 265 265 264 265 265
279 278 278 278 278 277 277 277 279 281 281 282 282 282 282 275 274 273 273 273 273 273 272 272 271 270 269 269 268 269 269 267 267 266 265 265 265 265 265 265 265 264 264 266 267 267 267 268 269 269 269 270 270 269 269 268 267 266 265 264 264 263 264
279 278 278 278 278 277 276 277 280 281 281 282 282 282 280 276 274 273 273 273 273 273 273 272 272 270 269 268 268 271 274 272 268 266 264 265 266 266 266 265 268 271 272 270 268 268 269 269 271 273 272 272 271 269 268 267 266 265 263 262 260 259 260
279 279 278 278 277 277 276 276 279 281 281 281 282 281 279 276 274 273 272 272 273 273 272 272 271 271 269 269 268 271 275 275 274 268 268 267 267 266 265 266 267 272 274 275 275 275 275 274 273 273 273 273 273 269 267 264 262 260 261 259 257 257 257
279 278 278 277 277 277 276 276 278 280 281 281 282 281 279 276 273 273 272 272 272 272 272 272 274 272 269 268 268 273 275 276 274 271 269 268 267 266 266 266 266 263 265 270 270 270 269 269 269 269 268 267 267 267 266 262 258 259 257 255 256 255 256
278 277 277 277 277 278 277 276 277 280 281 281 282 281 279 277 274 272 272 272 271 272 272 271 274 274 271 270 270 274 276 276 275 271 270 269 268 267 265 266 264 264 263 259 256 256 256 257 259 256 253 255 263 264 263 259 257 255 254 254 255 256 256
278 277 276 277 277 277 277 276 276 277 280 281 281 282 279 278 275 273 272 272 271 271 271 271 271 273 275 274 274 275 276 276 276 272 271 269 265 263 263 266 265 264 263 260 256 255 252 252 252 251 251 249 251 253 255 257 256 257 256 256 256 256 256
277 276 276 276 276 276 276 276 275 276 279 280 281 281 281 277 276 275 273 272 271 271 270 270 271 271 275 275 275 276 276 276 276 275 270 268 266 267 267 265 259 260 262 255 253 251 251 251 251 251 250 250 250 252 253 254 255 256 256 256 255 255 256
276 275 275 275 275 275 275 276 276 275 278 280 280 281 281 277 276 276 274 272 271 271 270 270 270 270 274 276 276 276 276 276 275 275 270 269 271 272 269 262 258 255 252 250 250 249 250 251 251 251 251 251 251 252 253 253 253 254 255 256 257 257 256
275 274 274 273 274 274 274 274 275 277 275 278 280 281 281 280 278 279 275 273 271 270 270 270 269 270 275 277 277 277 276 275 274 273 270 273 272 270 267 261 253 253 249 250 249 250 250 251 250 251 251 251 251 251 251 252 253 253 254 256 258 259 260
274 273 273 272 272 273 273 274 274 276 277 276 279 280 281 281 280 280 275 274 272 271 270 268 268 269 275 276 277 276 275 274 273 269 272 271 269 267 263 253 251 249 249 250 250 250 250 250 251 250 251 251 252 252 252 252 253 253 255 256 258 260 261
274 273 272 272 272 272 272 273 273 274 276 278 277 279 280 281 280 280 278 274 272 271 270 271 272 274 276 276 276 275 274 273 272 272 270 268 266 262 251 250 248 249 248 249 249 249 250 250 251 251 251 252 251 252 252 252 253 254 256 258 260 261 261
274 273 272 272 272 272 272 272 272 273 273 276 277 277 279 280 280 280 278 276 273 274 274 275 275 275 276 276 273 267 264 263 266 269 268 266 260 248 249 250 250 250 248 248 249 249 250 251 251 251 251 252 251 250 251 251 252 253 255 257 258 259 260
273 273 272 272 272 272 272 271 272 272 272 273 275 275 276 277 278 280 279 275 274 275 274 274 274 273 272 270 271 269 269 267 265 259 255 250 249 250 250 253 255 253 250 249 249 249 249 250 251 251 251 251 250 250 251 251 253 252 253 256 257 257 258
273 273 272 272 272 271 271 271 271 271 271 272 273 274 275 275 275 277 275 273 273 273 273 273 273 270 265 263 259 257 255 253 251 252 251 248 247 248 252 259 261 257 248 247 247 247 248 250 249 250 250 250 250 250 251 252 252 253 253 255 256 256 256
274 273 274 273 272 271 270 270 270 271 274 273 275 274 274 273 274 274 273 274 274 269 267 265 263 262 261 259 257 253 251 249 249 248 249 249 246 246 245 246 246 247 247 248 248 249 249 249 249 249 250 250 250 251 251 251 251 252 252 254 255 255 256
276 275 274 274 274 273 271 270 271 275 276 276 277 277 277 276 276 275 274 275 273 269 266 264 263 261 259 256 254 253 251 250 249 250 250 251 257 250 248 248 248 247 248 249 249 248 248 249 249 249 249 249 250 251 250 252 255 251 252 252 254 255 256
281 280 278 275 273 274 277 276 276 276 277 277 277 277 278 277 277 277 276 275 270 267 264 263 261 259 257 255 254 254 253 251 250 250 250 248 248 248 251 251 248 249 249 249 248 249 248 248 247 248 248 249 250 250 251 250 250 250 251 252 253 254 255
279 279 280 279 276 274 274 276 277 277 277 277 278 278 278 278 278 278 277 275 272 265 264 263 261 258 256 254 254 254 252 251 251 249 249 248 248 249 249 249 249 250 246 248 248 248 248 248 248 247 248 248 249 250 249 250 251 251 251 252 253 254 256
277 277 277 279 279 278 276 276 277 277 278 278 278 278 278 278 278 278 277 275 268 264 262 261 260 259 256 255 255 253 252 251 250 250 249 248 249 249 249 247 249 250 248 249 251 249 247 248 247 247 248 249 248 249 249 250 250 250 250 251 252 253 255
275 275 275 276 278 279 278 278 278 278 278 278 278 278 278 278 276 278 276 271 265 264 262 261 259 258 256 255 254 253 252 251 250 249 248 247 248 248 246 247 246 246 248 247 247 246 248 248 247 247 247 248 248 248 247 249 250 249 250 251 251 252 253
269 271 274 273 275 278 279 278 278 278 278 278 278 278 278 278 275 273 271 268 265 264 262 260 259 257 256 255 254 253 253 253 251 249 249 250 249 246 245 246 247 247 246 246 246 247 247 248 247 246 247 247 248 249 250 249 249 249 250 250 251 251 252
268 268 271 274 275 277 279 278 278 278 278 278 278 278 278 274 272 271 268 265 263 262 261 261 259 257 256 255 254 254 253 253 252 250 251 249 250 249 248 247 247 248 246 246 245 247 249 248 245 246 246 246 246 246 248 247 248 249 250 251 250 251 251
Wind_Speed
9 9 10 11 11 11 11 11 11 11 12 14 14 9 7 8 10 11 10 12 10 9 9 9 7 11 10 8 9 8 8 8 9 8 7 7 7 7 6 6 7 10 11 6 5 7 8 7 8 9 8 10 9 10 10 11 10 11 11 11 11 11 19
9 9 10 11 11 11 11 12 13 13 12 13 13 9 8 12 12 11 12 10 12 10 9 10 11 10 10 9 10 9 10 9 9 9 8 8 8 7 7 7 6 7 8 10 4 9 8 9 6 10 6 9 11 11 11 11 11 10 10 11 10 10 10
9 10 10 11 11 12 12 13 13 12 13 13 13 10 10 11 13 13 13 13 13 12 10 10 10 11 10 8 10 10 9 9 9 8 9 9 7 8 7 7 7 6 8 10 10 10 12 9 8 8 10 9 10 11 10 11 11 11 10 10 11 10 8
10 9 10 11 12 12 13 13 12 13 13 14 14 13 12 14 13 12 13 13 13 12 11 11 10 11 11 10 11 10 10 9 9 9 9 9 7 7 8 7 6 8 7 7 12 8 8 8 9 9 9 10 9 9 10 9 11 11 12 11 9 9 8
8 10 10 11 12 12 13 14 14 13 13 13 12 14 14 14 12 12 12 13 13 12 12 11 11 11 10 10 10 10 10 9 11 9 8 9 8 7 7 6 7 7 7 8 11 11 8 9 9 9 10 8 9 9 9 9 10 11 12 11 8 7 8
9 10 12 12 12 12 13 14 14 14 13 14 13 13 12 12 12 12 12 12 12 12 11 11 11 10 9 10 11 11 10 10 12 10 9 10 8 7 7 7 8 7 8 9 11 11 10 5 7 7 7 8 7 9 10 10 10 10 10 8 8 7 8
10 11 11 12 12 12 12 13 13 13 13 13 12 13 12 12 11 11 11 11 12 12 11 11 11 10 10 11 12 12 12 11 10 10 10 10 9 7 7 7 6 7 8 10 10 10 9 10 9 9 12 6 5 9 9 13 13 12 10 9 7 15 15
11 11 10 11 11 11 11 11 12 12 12 12 12 11 12 11 11 11 11 11 11 11 11 11 11 11 11 12 12 11 10 9 10 8 9 8 7 6 7 6 6 7 9 9 10 10 10 9 9 8 11 12 11 11 9 7 11 15 13 13 14 12 14
10 11 11 11 10 10 9 10 11 11 11 12 12 11 12 12 12 12 12 11 11 10 10 10 10 11 10 11 13 16 12 11 11 9 9 7 7 7 7 7 7 9 8 8 9 10 9 8 10 12 13 13 11 11 11 10 7 9 9 11 14 12 14
10 10 11 11 10 9 9 9 9 12 19 17 12 12 10 10 10 11 11 11 11 10 11 11 10 10 16 17 18 18 18 18 18 16 11 8 8 8 8 8 9 9 7 7 8 9 8 9 11 13 13 13 11 9 11 10 6 11 15 14 15 16 10
10 10 10 10 9 9 9 9 8 18 21 23 22 14 11 11 8 10 11 11 11 12 11 10 10 9 13 15 17 16 20 19 19 19 18 18 16 14 11 9 9 7 7 7 7 7 8 9 11 10 8 8 9 9 8 8 11 13 13 14 16 16 9
10 10 10 9 9 10 10 9 12 19 22 24 25 19 12 9 10 11 11 10 11 10 8 10 8 9 8 9 11 10 11 15 19 19 18 18 19 19 20 18 11 7 5 6 5 5 5 6 7 10 8 8 7 9 9 9 12 12 13 13 12 12 17
9 10 9 9 10 10 10 9 14 21 24 24 24 25 18 10 11 11 10 11 11 10 10 8 6 9 7 8 18 13 9 7 9 14 18 17 18 18 18 17 16 15 9 6 8 9 10 8 8 8 9 8 9 9 12 11 9 10 11 12 14 16 15
10 10 9 10 10 10 9 10 14 21 23 23 24 24 20 10 12 11 10 11 11 10 10 10 10 9 9 8 10 8 9 8 8 6 5 6 4 2 5 10 14 16 18 14 8 6 9 9 8 11 10 10 10 12 10 9 9 9 12 13 15 18 18
9 9 9 9 9 8 9 9 16 21 23 23 24 24 21 10 11 9 9 10 10 10 10 10 9 8 9 9 9 8 9 9 8 6 6 6 5 4 4 5 6 5 5 7 7 9 10 11 10 11 11 10 8 8 7 6 10 11 11 12 15 15 15
7 8 8 9 9 8 9 8 19 21 22 23 21 22 13 9 11 9 9 9 9 9 9 6 6 7 9 9 9 12 18 13 8 6 6 6 6 6 6 6 8 11 12 10 10 10 10 10 10 12 11 12 12 11 10 11 10 9 10 11 12 14 9
7 7 7 8 8 9 9 8 16 21 21 21 21 16 8 8 9 9 10 9 9 9 9 7 7 8 9 9 9 13 18 17 14 8 8 8 7 6 6 8 6 11 14 16 17 17 16 15 16 18 21 22 23 17 13 10 9 9 7 9 11 16 10
6 6 6 8 9 10 9 8 12 19 18 19 20 16 9 7 9 10 10 8 9 8 8 9 17 13 9 9 9 15 18 16 12 8 8 7 6 8 8 6 4 3 2 6 8 9 10 13 16 17 17 16 17 17 13 6 10 8 6 10 10 15 13
6 5 6 7 8 12 11 7 10 17 17 19 19 16 8 7 8 10 9 9 8 8 7 8 13 18 13 10 10 16 16 16 12 5 6 6 6 8 6 6 2 1 3 3 5 5 6 9 9 7 7 8 15 15 12 6 7 6 6 9 10 11 12
5 6 6 6 6 7 8 7 7 11 19 18 18 20 9 7 8 9 10 9 8 8 7 8 8 13 18 17 16 16 16 14 14 6 6 6 4 4 8 1 3 1 2 1 2 5 4 6 6 6 5 5 5 6 5 7 6 6 6 9 11 10 9
5 5 5 5 6 6 6 7 7 10 18 17 17 19 17 7 9 9 10 9 9 9 9 8 8 6 14 18 17 16 15 14 13 10 6 6 5 5 3 7 4 0 3 1 3 4 4 6 5 5 5 4 5 5 5 5 7 7 7 8 10 11 11
4 5 5 4 5 5 6 7 11 7 14 16 17 18 21 9 9 9 9 9 8 8 8 9 8 6 12 17 16 15 14 13 9 9 4 5 8 7 9 5 3 2 1 2 2 5 5 6 6 6 6 5 5 6 7 6 7 8 8 9 10 11 12
4 4 4 4 4 4 5 6 7 12 8 14 17 18 20 17 12 18 11 10 9 9 8 7 8 8 14 17 15 14 12 9 9 5 6 9 5 10 10 6 3 3 3 3 3 3 5 5 6 7 7 6 6 6 6 7 8 9 9 10 11 13 13
4 4 5 5 5 4 5 5 5 10 13 11 17 17 18 19 20 20 11 10 8 8 8 8 8 8 16 15 14 12 11 10 8 7 7 8 10 8 8 4 3 2 1 1 2 4 5 6 5 5 7 6 6 7 8 9 9 9 10 10 10 12 13
4 5 5 5 6 5 5 4 5 5 9 14 14 16 16 17 19 22 19 11 8 9 9 11 15 16 17 15 14 14 10 8 10 11 9 9 9 7 5 4 1 1 0 3 4 4 4 5 5 5 7 7 7 8 7 6 7 7 8 9 10 11 11
3 4 4 5 5 5 5 5 5 5 5 7 10 10 14 16 17 20 20 15 11 14 16 17 17 19 18 15 11 8 8 6 6 9 10 9 8 4 4 2 1 1 1 2 2 3 4 6 6 6 7 6 6 6 7 7 7 8 8 7 8 9 9
4 3 4 4 5 5 5 5 5 5 5 5 5 5 6 8 9 16 20 12 10 13 11 14 14 10 13 13 16 13 11 10 9 9 8 6 4 4 2 2 2 1 1 1 1 4 3 5 5 6 6 7 7 7 7 5 7 7 8 8 8 8 9
4 5 5 5 4 4 5 5 5 6 6 7 6 5 6 4 3 6 9 9 8 9 10 10 12 14 10 10 10 8 7 6 6 6 6 4 3 2 1 1 3 5 2 1 0 2 2 4 4 6 7 7 6 6 6 6 7 7 8 8 8 8 9
4 4 5 5 5 5 5 5 6 8 9 8 11 8 7 6 6 4 9 13 16 10 10 11 11 10 9 8 8 7 6 5 5 4 3 4 3 1 1 2 2 3 2 1 2 6 4 5 5 5 5 6 6 6 7 6 6 6 6 7 5 6 7
4 4 4 4 4 6 7 8 9 11 15 15 15 16 15 11 10 12 13 20 25 16 11 9 9 8 9 8 7 7 6 6 6 6 4 2 4 2 1 1 1 1 1 1 1 2 3 4 4 6 6 6 7 7 5 6 8 7 7 6 7 7 7
11 12 9 6 5 5 11 10 9 12 16 17 17 17 18 16 15 20 24 26 17 12 11 10 9 7 6 7 7 7 7 6 6 6 6 4 1 0 0 2 1 1 1 3 2 1 2 2 4 4 5 6 7 7 8 6 4 4 5 6 7 7 8
8 8 5 13 10 6 4 9 10 13 15 17 17 18 18 18 19 23 26 26 21 11 9 9 9 8 7 7 7 6 6 6 6 6 6 6 3 2 1 1 2 1 2 1 1 1 3 3 4 3 5 5 5 7 6 7 8 9 9 8 6 6 7
7 6 8 3 12 12 10 9 11 13 15 16 17 18 18 19 21 24 26 24 12 10 9 7 8 8 7 7 7 7 7 6 6 6 6 6 6 5 2 3 0 2 3 2 1 1 2 2 3 4 6 5 5 6 6 7 8 8 6 6 8 8 8
7 10 7 8 2 15 11 12 12 13 14 16 17 18 19 19 16 24 25 16 9 9 9 8 7 7 7 6 6 6 6 6 5 5 6 4 3 4 3 2 1 3 3 2 2 1 1 2 3 5 5 5 5 3 2 6 7 7 9 9 8 9 9
5 6 9 4 5 11 14 14 12 14 14 17 17 19 20 20 13 14 11 9 7 8 9 9 9 8 7 7 7 7 7 7 6 6 6 6 5 4 4 2 2 2 2 1 1 1 1 2 3 4 4 4 5 6 8 7 7 7 7 7 9 9 9
3 4 6 6 3 5 15 14 14 13 15 16 18 19 21 11 9 10 9 8 6 7 7 7 8 8 7 7 6 6 6 6 7 6 6 5 6 6 5 4 3 4 2 1 1 1 1 3 3 4 4 5 2 3 4 5 5 6 6 6 7 7 6
Wind_Direction
223 219 217 212 211 211 208 204 202 193 190 193 195 184 168 164 179 192 202 199 184 175 182 190 186 199 197 184 187 192 193 199 201 197 202 203 205 212 211 218 237 251 268 259 253 272 276 268 266 268 256 275 282 289 286 282 277 276 274 275 274 274 278
224 221 220 215 213 211 207 204 199 196 192 195 191 175 181 190 189 192 197 192 193 185 191 194 200 202 196 190 191 190 195 195 196 198 200 203 203 207 213 212 221 244 260 274 256 280 275 276 266 276 252 278 292 287 288 286 283 279 271 273 270 270 267
227 221 218 219 215 210 208 201 200 197 196 198 191 176 177 191 192 193 193 193 195 192 189 195 199 205 197 192 195 197 199 191 197 196 200 206 203 210 210 210 212 229 255 269 274 277 284 278 273 261 279 276 277 280 279 283 281 283 281 270 269 267 265
233 224 219 220 218 213 207 202 200 200 200 200 194 192 185 192 197 195 196 195 192 188 188 194 199 207 199 193 196 198 197 196 196 196 202 203 209 207 211 211 217 227 251 263 278 266 262 274 279 272 272 280 276 279 279 271 280 275 273 272 268 268 272
232 230 223 220 220 215 207 202 202 200 200 201 198 199 198 196 195 195 195 195 192 188 188 190 200 205 199 194 198 200 199 196 195 200 199 205 204 206 209 213 223 234 238 262 268 277 257 262 260 269 281 280 289 286 276 278 276 279 277 274 265 272 283
236 228 227 222 220 216 208 201 202 203 200 200 200 201 199 196 194 194 194 194 193 188 186 190 197 202 195 195 198 202 201 194 198 194 200 205 208 207 208 216 229 236 250 256 262 266 277 234 269 269 260 290 283 284 290 286 279 276 275 276 283 275 285
241 234 228 226 219 216 208 202 201 202 202 201 200 201 199 195 192 193 194 196 195 191 187 188 192 194 194 199 204 204 200 196 195 196 202 205 205 202 205 218 228 240 248 254 260 263 264 277 268 272 290 289 258 270 277 296 299 293 291 285 293 301 298
245 241 230 228 222 218 207 202 200 201 199 199 200 197 199 194 192 191 196 197 197 193 188 187 189 192 196 203 207 206 204 190 195 191 201 204 195 195 205 218 231 243 249 252 255 257 267 264 275 276 283 291 293 291 280 273 296 297 298 295 293 289 294
247 243 235 229 223 217 208 204 202 198 195 194 197 198 197 196 194 193 194 196 197 193 188 187 190 194 199 202 208 209 204 198 192 182 196 196 184 195 205 221 234 243 243 245 249 258 260 264 273 283 290 292 290 291 294 300 295 284 285 297 296 292 286
245 236 231 226 219 216 211 209 204 199 198 194 192 193 194 195 196 192 194 194 195 192 191 190 189 195 200 205 210 211 212 209 206 199 191 188 183 199 208 224 236 236 234 237 247 254 259 259 271 284 286 286 286 294 296 295 294 292 303 301 292 291 285
244 234 227 221 214 211 213 213 205 201 203 203 198 187 191 193 186 192 195 197 193 195 191 188 189 187 200 205 213 217 218 218 216 218 214 211 209 208 210 222 227 219 219 231 242 249 252 254 267 273 284 288 296 289 285 294 297 295 293 295 304 304 298
240 235 226 216 210 210 209 212 208 206 209 211 208 196 188 188 191 193 197 196 195 196 179 183 178 185 190 202 208 209 217 221 222 222 224 227 231 234 233 230 214 219 223 232 242 251 240 277 277 290 288 290 291 292 284 275 278 275 277 283 287 287 294
242 236 223 214 209 208 206 208 209 213 215 213 211 206 191 192 189 194 198 195 196 191 187 181 153 182 191 204 212 212 206 211 225 228 229 233 240 243 247 253 260 269 274 289 283 279 281 275 298 292 285 281 285 285 278 282 274 274 275 280 288 290 288
243 236 222 214 212 208 203 203 205 213 215 214 213 213 198 182 188 194 195 197 194 192 185 181 176 183 192 196 206 204 193 195 207 216 236 249 257 261 275 272 272 275 277 279 281 286 283 283 275 274 276 275 276 277 277 282 280 292 294 289 284 288 289
242 233 223 215 210 207 203 202 202 211 215 216 215 216 211 173 186 186 193 195 195 191 186 178 177 167 184 188 196 197 188 186 194 196 204 212 228 245 251 245 246 250 252 256 255 252 255 259 257 262 266 266 270 268 277 295 302 305 298 292 291 282 272
238 233 222 213 206 205 205 201 206 210 213 216 218 217 216 167 179 182 186 192 192 194 185 157 154 155 181 186 189 198 201 195 179 181 189 204 219 227 237 241 235 240 242 238 235 233 239 242 255 274 292 304 306 307 307 304 299 290 286 289 286 281 292
241 230 221 208 204 202 205 198 207 210 211 214 217 218 210 157 172 180 184 186 191 192 183 164 165 169 184 183 188 195 204 208 195 188 197 206 215 223 229 244 241 256 267 274 279 286 296 309 319 312 304 302 304 304 307 306 296 277 296 293 291 289 287
244 227 213 208 203 202 201 199 202 207 209 212 216 215 202 153 167 173 181 182 185 186 185 180 187 187 183 184 190 194 203 207 205 188 188 190 205 222 237 245 234 232 294 317 324 322 321 316 311 314 318 315 310 307 305 297 281 302 329 280 273 285 292
238 227 205 208 204 201 200 190 196 203 208 212 213 214 194 173 146 172 180 175 177 179 179 186 200 197 185 188 188 195 203 207 207 185 190 203 224 232 235 248 209 226 290 327 340 322 340 318 321 325 316 300 304 308 311 308 284 295 270 270 273 277 296
232 224 214 202 197 199 198 184 186 200 208 212 213 214 196 174 161 167 174 171 170 164 174 180 186 201 194 192 192 198 204 209 211 192 175 167 193 225 253 234 105 148 185 266 285 283 285 282 289 296 291 287 292 294 283 278 269 264 261 268 272 274 270
232 217 214 193 192 190 188 185 182 194 205 208 214 215 208 167 179 164 161 167 166 172 169 173 187 186 194 192 195 199 204 207 211 197 167 184 197 213 177 105 102 337 17 282 295 301 307 306 309 295 289 296 293 286 276 270 267 259 257 262 267 274 266
220 212 204 186 182 184 189 185 192 184 202 207 214 217 211 178 178 160 159 159 165 170 166 174 177 177 194 193 194 198 195 199 192 212 135 161 188 210 117 99 134 146 72 359 343 326 319 322 322 313 314 301 291 287 281 279 272 265 261 252 257 259 267
209 201 194 177 183 182 185 179 192 193 190 207 214 216 217 191 169 170 162 160 165 170 170 168 171 180 192 194 197 196 198 183 198 185 139 191 153 98 82 85 68 71 32 2 327 326 329 322 315 324 322 317 310 297 284 281 271 270 265 260 257 253 251
193 189 188 185 186 186 181 178 174 201 195 202 214 216 214 204 178 179 158 164 162 164 164 157 166 177 189 193 193 189 178 191 157 138 148 121 96 74 73 71 80 46 51 280 352 349 331 319 315 318 314 312 310 304 297 287 279 275 268 263 265 264 262
185 189 189 182 187 185 176 173 181 179 207 203 210 219 213 215 188 183 162 162 162 158 163 169 171 175 179 184 176 171 176 165 144 141 117 103 85 87 77 95 111 113 235 21 7 329 307 302 310 302 289 295 301 298 293 285 285 278 274 270 275 273 275
210 198 190 189 183 182 171 176 169 179 194 209 208 216 218 218 204 188 170 163 161 167 167 171 168 169 171 166 143 106 87 97 118 126 116 100 89 87 109 116 153 225 63 15 351 331 323 313 312 310 307 304 305 309 305 316 314 321 316 315 312 309 304
212 201 201 196 193 178 165 170 173 176 181 186 199 189 209 222 221 193 173 162 160 162 159 161 162 153 125 114 120 118 112 98 89 76 64 60 84 106 114 197 241 207 118 84 332 314 310 311 303 303 322 333 331 316 311 320 318 317 316 320 320 313 308
212 206 197 203 187 173 164 168 172 182 179 188 184 185 182 199 209 187 156 146 147 144 146 139 129 117 92 89 68 72 59 59 73 88 95 88 86 91 271 254 87 94 79 80 211 264 304 322 330 334 333 324 320 308 312 324 327 329 322 322 322 328 330
228 213 206 188 175 169 174 161 185 201 195 183 185 180 178 179 188 152 143 149 137 115 98 102 107 109 111 105 108 94 99 98 97 78 90 102 72 61 42 58 61 60 34 327 18 16 348 327 329 332 329 317 315 327 332 326 325 329 321 313 312 318 316
236 219 186 187 186 179 173 185 205 197 194 194 191 191 184 181 167 151 146 141 136 132 126 129 132 135 135 131 127 132 136 146 137 135 127 145 149 119 134 76 72 81 41 25 42 12 348 334 347 343 334 326 323 321 336 339 348 329 327 327 333 332 335
264 245 215 181 186 194 201 198 190 183 193 192 191 190 188 183 167 151 149 141 132 130 136 138 135 137 134 142 141 148 157 156 156 158 146 161 185 275 83 89 98 78 80 53 37 8 340 344 360 335 318 325 328 331 329 336 335 327 333 340 327 333 331
352 347 290 210 190 170 192 206 195 191 191 191 189 190 186 181 166 158 152 148 138 129 142 146 142 144 149 149 152 158 154 157 162 162 158 160 148 169 208 135 113 135 104 71 49 10 347 10 354 323 310 310 321 329 334 344 351 359 351 343 334 328 323
17 3 4 326 202 183 180 179 190 191 191 189 187 186 183 177 167 160 149 145 138 136 139 144 146 148 151 159 162 160 162 167 165 161 171 177 164 167 189 181 245 70 97 54 93 85 353 7 349 325 318 316 327 348 358 353 356 349 342 336 342 341 340
22 10 355 4 261 188 184 182 184 187 188 185 183 182 179 171 166 158 151 146 138 140 145 146 146 148 155 158 145 151 148 152 160 159 161 167 170 164 153 149 193 87 79 65 24 2 357 16 349 339 336 334 340 334 343 9 3 352 355 357 352 338 335
349 344 342 337 344 191 174 177 179 183 185 182 181 179 175 166 160 159 147 136 137 144 145 148 154 155 157 154 155 163 160 161 159 159 160 164 161 160 151 139 121 109 102 80 43 25 28 33 0 341 328 329 347 359 15 9 0 359 351 348 344 343 336
333 319 305 302 279 227 174 170 176 179 181 180 179 178 173 163 159 152 144 134 131 137 145 144 148 145 152 151 147 149 157 159 159 167 166 164 159 154 153 149 137 127 115 131 90 51 18 35 17 351 335 325 321 12 12 2 1 350 343 344 345 337 334